Regional Weather Roundup
Issued by NWS Lake Charles, LA

Home | Current Version | Previous Version | Text Only | Print | Product List | Glossary On
Versions: 1 2 3 4 5 6 7 8 9 10 11 12 13 14 15 16 17 18 19 20 21 22 23 24 25 26 27
000
ASUS44 KLCH 250010
RWRLCH
REGIONAL WEATHER ROUNDUP
NATIONAL WEATHER SERVICE LAKE CHARLES LA
600 PM CST FRI NOV 24 2017

Note: "fair" indicates few or no clouds below 12,000 feet with no
significant weather and/or obstructions to visibility.


ACROSS SOUTHEAST TEXAS

CITY           SKY/WX    TMP DP  RH WIND       PRES   REMARKS
BEAUMONT       CLEAR     54  42  64 S6        29.94S
BEAUMONT CITY  FAIR      57  42  55 SE5       29.94S
ORANGE         CLEAR     57  48  72 S3        29.96S
JASPER         CLEAR     53  47  79 CALM      29.95R
$$

ACROSS CENTRAL LOUISIANA

CITY           SKY/WX    TMP DP  RH WIND       PRES   REMARKS
LEESVILLE      CLEAR     56  40  53 CALM      29.93R
FULLERTON      FAIR      53  41  63 CALM      29.92R
ALEXANDRIA INT CLEAR     53  41  63 S8        29.92R
ESLER FIELD    CLEAR     49  40  71 CALM      29.93S
DERIDDER       FAIR      54  40  58 CALM      29.95S
OAKDALE        CLEAR     46  43  89 CALM      29.95R
OPELOUSAS      FAIR      52  38  58 CALM      29.96R
$$

ACROSS SOUTHWEST AND SOUTH CENTRAL LOUISIANA

CITY           SKY/WX    TMP DP  RH WIND       PRES   REMARKS
SULPHUR        CLEAR     54  43  66 SE5       29.96S
LAKE CHARLES   CLEAR     55  43  63 S3        29.95S
CHENNAULT INT  CLEAR     55  39  54 S5        29.96S
CAMERON PHI    CLEAR     61  48  63 S8        29.96S
DEQUINCY       FAIR      54  40  60 CALM      29.95R
JENNINGS       FAIR      56  41  57 S3        29.96S
LAFAYETTE      CLOUDY    55  36  48 S8        29.97R
NEW IBERIA     CLEAR     51  38  60 S6        29.97S
ABBEVILLE      FAIR      49  40  69 S5        29.97S
PATTERSON      CLEAR     51  39  63 SW5       29.98S
SALT POINT       N/A      1  52 100 VRB3      29.97S
$$

SELECTED SITES ACROSS THE REGION

CITY           SKY/WX    TMP DP  RH WIND       PRES   REMARKS
HOUSTON BUSH   PTCLDY    62  47  57 SE7       29.91S
HOUSTON HOBBY  PTCLDY    62  46  55 S8        29.92R
GALVESTON      CLEAR     63  52  67 S10       29.94F
COLLEGE STAT   CLEAR     64  41  42 S7        29.87F
CONROE         CLEAR     55  45  68 CALM      29.91R
HUNTSVILLE     CLEAR     63  41  44 SE3       29.89S
LUFKIN         CLEAR     55  46  71 SE5       29.90S
SHREVEPORT     MOCLDY    56  41  57 S7        29.88R
MONROE         CLEAR     52  40  63 CALM      29.92R
NATCHEZ MS     CLEAR     52  35  52 CALM      29.95S
BATON ROUGE    CLEAR     53  36  52 CALM      29.95F
N.O. INTL ARPT PTCLDY    54  35  48 CALM      29.97S
SLIDELL        CLEAR     49  41  74 CALM      29.96F
$$

MARINE REPORTS

STATION/POSITION TIME  SKY/WX   TEMP    WIND        PRES    VSBY
                                AIR SEA DIR/SP/G
                 (UTC)          (F)     (DEG/KT/KT) (MB)    (MI)
BUOY 30 S HIGH I 2250            66 69  210/  8/  8 1014.1
WVE H/P(F/S)=  1

SEA RIM ST PARK  0000            62     190/  8/  9 1014.2F
PORT ARTHUR      2348            59 63  180/  3/  4 1013.9F
SABINE PASS N    2348            60 63  180/  5/  7 1015.3F
TEXAS POINT      NOT AVBL
CALCASIEU PASS   2348            62 60  200/  8/  9 1013.1F
LK CHARLES BEACH 2348            58 66              1013.8R
MARSH ISLAND     2300            60                   N/A
FRESH WATER LOCK 2348            57 63  190/  5/  6 1014.7F
AMERADA PASS     2348            54 59     CALM     1015.2R
$$




USA.gov is the U.S. government's official web portal to all federal, state and local government web resources and services.